sat.trackr.live / text

‹ back to catalog

KINEIS-3D

NORAD 61221 · 2024-172B

PAYLOAD ACTIVE UNKNOWN

§ Identity

Operator
Country
FR
Launch date
2024-09-20
Launch site
RLLB
Launch vehicle
Mass (kg)
RCS (m²)

External: N2YO · Heavens-Above · Gunter

§ Orbital elements

Epoch: 2026-09-22T17:26:05.316288Z

Period
97.80 min
Inclination
98.0409°
Eccentricity
0.0001681
Mean motion
14.72329200 rev/d
Perigee alt
652.5 km
Apogee alt
654.8 km
Semi-major
7,031.8 km
B*
1.9720e-4
RAAN
354.5871°
Arg perigee
145.4666°
Mean anomaly
214.6650°
Rev number
10,770

§ Raw data

KINEIS-3D1 61221U 24172B   26265.72645042  .00001197  00000+0  19720-3 0  99982 61221  98.0409 354.5871 0001681 145.4666 214.6650 14.72329200107704

JSON: /api/v1/satellites/61221 · /tle

For live sub-satellite position, see the globe view (requires WebGL).

§ Visibility from observer

Set your observer location to see the next 7 days of passes ≥ 10°. The values pass through the URL so the page stays shareable.

No JS? Fill the form by hand. The geolocation button needs JavaScript.

§ Radio — SatNOGS DB

ModeDescriptionDownlinkUplink
BPSK S-band telemetry 2.265 GHz
BPSK Telemetry 400.662 MHz

2 transmitters · refreshed weekly from db.satnogs.org